EZY124 LIRF-LIPY

Flight info

Callsign EZY124
Flight time 0h 34m
Altitude 18000
Route XIBRI5AXTIBER5R/25 TIBER Y106 GITOD L865 ERLIT
Aircraft A20N/M-SDE2E3FGHIRWXY/LB1

Departure

Time 2026-04-14 14:48
Airport Rome–Fiumicino Leonardo da Vinci International Airport (LIRF)

Arrival

Time 2026-04-14 15:22
Airport Marche Airport (LIPY)
Time Latitude Longitude Altitude Speed Heading
2026-04-14 14:20 41.79791 12.25533 21 ft 0 kts 116°
2026-04-14 14:36 41.79796 12.25520 21 ft 3 kts 116°
2026-04-14 14:37 41.79804 12.25498 22 ft 3 kts 97°
2026-04-14 14:37 41.79802 12.25475 21 ft 3 kts 33°
2026-04-14 14:37 41.79799 12.25473 21 ft 0 kts 29°
2026-04-14 14:40 41.79811 12.25477 21 ft 3 kts 12°
2026-04-14 14:40 41.79836 12.25484 21 ft 4 kts 11°
2026-04-14 14:40 41.79865 12.25494 21 ft 6 kts 19°
2026-04-14 14:40 41.79909 12.25520 20 ft 7 kts 24°
2026-04-14 14:41 41.79954 12.25547 21 ft 7 kts 25°
2026-04-14 14:41 41.79995 12.25583 21 ft 6 kts 63°
2026-04-14 14:41 41.79990 12.25636 20 ft 6 kts 113°
2026-04-14 14:41 41.79973 12.25684 21 ft 6 kts 116°
2026-04-14 14:42 41.79954 12.25737 23 ft 7 kts 116°
2026-04-14 14:42 41.79930 12.25805 21 ft 9 kts 114°
2026-04-14 14:42 41.79946 12.25868 21 ft 8 kts 29°
2026-04-14 14:42 41.79997 12.25900 21 ft 8 kts 25°
2026-04-14 14:43 41.80062 12.25940 20 ft 13 kts 25°
2026-04-14 14:43 41.80160 12.26001 18 ft 18 kts 25°
2026-04-14 14:43 41.80284 12.26078 16 ft 20 kts 25°
2026-04-14 14:43 41.80410 12.26156 16 ft 18 kts 24°
2026-04-14 14:44 41.80499 12.26190 16 ft 11 kts 30°
2026-04-14 14:44 41.80537 12.26275 17 ft 10 kts 69°
2026-04-14 14:44 41.80559 12.26354 18 ft 8 kts 70°
2026-04-14 14:44 41.80580 12.26431 20 ft 11 kts 70°
2026-04-14 14:45 41.80612 12.26552 17 ft 17 kts 70°
2026-04-14 14:45 41.80656 12.26706 16 ft 18 kts 69°
2026-04-14 14:45 41.80701 12.26869 12 ft 19 kts 70°
2026-04-14 14:45 41.80735 12.26993 13 ft 8 kts 69°
2026-04-14 14:46 41.80766 12.27040 12 ft 7 kts 26°
2026-04-14 14:46 41.80819 12.27035 11 ft 11 kts 340°
2026-04-14 14:46 41.80891 12.27001 12 ft 11 kts 340°
2026-04-14 14:46 41.80950 12.26954 12 ft 9 kts 308°
2026-04-14 14:47 41.80943 12.26875 14 ft 16 kts 249°
2026-04-14 14:47 41.80824 12.26447 19 ft 83 kts 249°
2026-04-14 14:47 41.80552 12.25449 16 ft 143 kts 250°
2026-04-14 14:47 41.80186 12.24074 319 ft 160 kts 243°
2026-04-14 14:48 41.79792 12.22671 850 ft 163 kts 245°
2026-04-14 14:48 41.79332 12.21318 1574 ft 152 kts 232°
2026-04-14 14:48 41.78596 12.20217 2082 ft 173 kts 219°
2026-04-14 14:48 41.77622 12.19096 2586 ft 193 kts 217°
2026-04-14 14:49 41.76548 12.17915 3370 ft 207 kts 216°
2026-04-14 14:49 41.75283 12.16991 4185 ft 213 kts 193°
2026-04-14 14:49 41.73741 12.16757 4859 ft 234 kts 179°
2026-04-14 14:49 41.72058 12.16824 5558 ft 249 kts 176°
2026-04-14 14:50 41.70292 12.16944 6471 ft 257 kts 176°
2026-04-14 14:50 41.68487 12.17061 7402 ft 262 kts 175°
2026-04-14 14:50 41.66683 12.17512 8351 ft 266 kts 161°
2026-04-14 14:50 41.65055 12.18691 9276 ft 271 kts 140°
2026-04-14 14:51 41.63897 12.20690 10143 ft 279 kts 116°
2026-04-14 14:51 41.63499 12.23279 10582 ft 306 kts 89°
2026-04-14 14:51 41.64168 12.26148 10891 ft 337 kts 61°
2026-04-14 14:51 41.65823 12.28442 11302 ft 362 kts 35°
2026-04-14 14:52 41.68165 12.29810 12064 ft 372 kts 19°
2026-04-14 14:52 41.70651 12.30861 12859 ft 378 kts 19°
2026-04-14 14:52 41.73169 12.31987 13545 ft 382 kts 20°
2026-04-14 14:52 41.75676 12.33201 13931 ft 386 kts 21°
2026-04-14 14:53 41.78210 12.34495 14645 ft 391 kts 22°
2026-04-14 14:53 41.80718 12.35814 15501 ft 393 kts 23°
2026-04-14 14:53 41.83313 12.37198 16327 ft 397 kts 23°
2026-04-14 14:53 41.85859 12.38569 17096 ft 401 kts 23°
2026-04-14 14:54 41.88451 12.39972 17655 ft 403 kts 23°
2026-04-14 14:54 41.91065 12.41391 18048 ft 406 kts 24°
2026-04-14 14:54 41.93695 12.42821 18380 ft 409 kts 24°
2026-04-14 14:54 41.96362 12.44275 18813 ft 415 kts 24°
2026-04-14 14:55 41.99043 12.45737 19495 ft 418 kts 24°
2026-04-14 14:55 42.01747 12.47213 20150 ft 421 kts 24°
2026-04-14 14:55 42.04477 12.48704 20779 ft 426 kts 24°
2026-04-14 14:55 42.07242 12.50217 21411 ft 430 kts 24°
2026-04-14 14:56 42.12799 12.53259 21893 ft 432 kts 24°
2026-04-14 14:56 42.15557 12.54771 21896 ft 434 kts 24°
2026-04-14 14:56 42.18391 12.56325 21900 ft 434 kts 24°
2026-04-14 14:57 42.21161 12.57796 21912 ft 435 kts 21°
2026-04-14 14:57 42.24133 12.58693 21918 ft 438 kts
2026-04-14 14:57 42.27176 12.58466 21915 ft 441 kts 349°
2026-04-14 14:57 42.30146 12.57389 21914 ft 441 kts 343°
2026-04-14 14:58 42.33049 12.56015 21922 ft 442 kts 339°
2026-04-14 14:58 42.35917 12.54490 21921 ft 442 kts 338°
2026-04-14 14:58 42.38768 12.52914 21917 ft 443 kts 338°
2026-04-14 14:58 42.41588 12.51356 21917 ft 442 kts 338°
2026-04-14 14:59 42.44447 12.49798 21917 ft 442 kts 338°
2026-04-14 14:59 42.47317 12.48261 21915 ft 442 kts 339°
2026-04-14 14:59 42.50183 12.46746 21921 ft 443 kts 339°
2026-04-14 14:59 42.53060 12.45236 21918 ft 442 kts 339°
2026-04-14 15:00 42.55925 12.43739 21919 ft 442 kts 339°
2026-04-14 15:00 42.58797 12.42239 21920 ft 442 kts 339°
2026-04-14 15:00 42.61668 12.40737 21924 ft 442 kts 339°
2026-04-14 15:00 42.64534 12.39237 21922 ft 442 kts 339°
2026-04-14 15:01 42.67404 12.37731 21920 ft 442 kts 339°
2026-04-14 15:01 42.70279 12.36220 21917 ft 442 kts 339°
2026-04-14 15:01 42.73136 12.34806 21921 ft 442 kts 344°
2026-04-14 15:01 42.76151 12.34039 21923 ft 441 kts 356°
2026-04-14 15:02 42.79201 12.34236 21929 ft 439 kts 12°
2026-04-14 15:02 42.82088 12.35513 21923 ft 435 kts 28°
2026-04-14 15:02 42.84581 12.37781 21925 ft 432 kts 42°
2026-04-14 15:02 42.86800 12.40531 21923 ft 431 kts 47°
2026-04-14 15:03 42.88882 12.43467 21918 ft 430 kts 49°
2026-04-14 15:03 42.90902 12.46494 21914 ft 430 kts 50°
2026-04-14 15:03 42.92898 12.49538 21917 ft 431 kts 50°
2026-04-14 15:03 42.94899 12.52578 21908 ft 430 kts 50°
2026-04-14 15:04 42.96908 12.55598 21907 ft 431 kts 50°
2026-04-14 15:04 42.98916 12.58582 21910 ft 431 kts 49°
2026-04-14 15:04 43.00953 12.61588 21914 ft 431 kts 49°
2026-04-14 15:04 43.02995 12.64589 21911 ft 431 kts 49°
2026-04-14 15:05 43.05043 12.67595 21916 ft 431 kts 49°
2026-04-14 15:05 43.07096 12.70601 21800 ft 435 kts 49°
2026-04-14 15:05 43.09161 12.73626 21176 ft 435 kts 49°
2026-04-14 15:05 43.11235 12.76666 20306 ft 437 kts 49°
2026-04-14 15:06 43.13316 12.79721 19483 ft 439 kts 48°
2026-04-14 15:06 43.15399 12.82783 18672 ft 440 kts 48°
2026-04-14 15:06 43.17481 12.85846 17820 ft 439 kts 48°
2026-04-14 15:06 43.19566 12.88918 16963 ft 437 kts 48°
2026-04-14 15:07 43.21628 12.91960 16157 ft 434 kts 48°
2026-04-14 15:07 43.23667 12.94979 15351 ft 431 kts 48°
2026-04-14 15:07 43.25660 12.97936 14939 ft 418 kts 48°
2026-04-14 15:07 43.27581 13.00787 14849 ft 398 kts 48°
2026-04-14 15:08 43.29417 13.03511 14766 ft 379 kts 48°
2026-04-14 15:08 43.31171 13.06100 14671 ft 363 kts 48°
2026-04-14 15:08 43.32862 13.08591 14529 ft 348 kts 48°
2026-04-14 15:08 43.34484 13.10982 14374 ft 336 kts 48°
2026-04-14 15:09 43.36053 13.13288 14212 ft 324 kts 47°
2026-04-14 15:09 43.37815 13.15113 14070 ft 313 kts 23°
2026-04-14 15:09 43.39901 13.15588 13932 ft 301 kts 352°
2026-04-14 15:09 43.41869 13.14823 13803 ft 289 kts 337°
2026-04-14 15:10 43.43684 13.13763 13664 ft 278 kts 332°
2026-04-14 15:10 43.45255 13.12326 13464 ft 267 kts 317°
2026-04-14 15:10 43.46589 13.10581 13203 ft 261 kts 313°
2026-04-14 15:10 43.47861 13.08807 12822 ft 258 kts 312°
2026-04-14 15:11 43.49103 13.07070 12378 ft 258 kts 313°
2026-04-14 15:11 43.50369 13.05309 11942 ft 258 kts 313°
2026-04-14 15:11 43.51629 13.03568 11543 ft 255 kts 314°
2026-04-14 15:11 43.52887 13.01841 11171 ft 255 kts 315°
2026-04-14 15:12 43.54341 13.00469 10812 ft 255 kts 341°
2026-04-14 15:12 43.56084 13.00340 10391 ft 254 kts 19°
2026-04-14 15:12 43.57575 13.01556 10083 ft 249 kts 43°
2026-04-14 15:12 43.58815 13.03191 9831 ft 245 kts 47°
2026-04-14 15:13 43.60002 13.04866 9475 ft 242 kts 48°
2026-04-14 15:13 43.61179 13.06529 9049 ft 241 kts 48°
2026-04-14 15:13 43.62348 13.08170 8652 ft 239 kts 47°
2026-04-14 15:13 43.63499 13.09783 8266 ft 237 kts 50°
2026-04-14 15:14 43.64395 13.11672 7846 ft 231 kts 75°
2026-04-14 15:14 43.64464 13.13785 7443 ft 224 kts 107°
2026-04-14 15:14 43.63693 13.15638 7018 ft 224 kts 130°
2026-04-14 15:14 43.62616 13.17192 6641 ft 223 kts 135°
2026-04-14 15:15 43.61482 13.18628 6263 ft 221 kts 143°
2026-04-14 15:15 43.60090 13.19443 5927 ft 218 kts 171°
2026-04-14 15:15 43.58635 13.19055 5543 ft 215 kts 208°
2026-04-14 15:15 43.57480 13.17795 5169 ft 210 kts 223°
2026-04-14 15:16 43.56419 13.16440 4802 ft 205 kts 216°
2026-04-14 15:16 43.55112 13.15745 4288 ft 203 kts 179°
2026-04-14 15:16 43.53791 13.16280 3799 ft 201 kts 144°
2026-04-14 15:16 43.52729 13.17533 3297 ft 197 kts 133°
2026-04-14 15:17 43.51832 13.18853 3094 ft 179 kts 125°
2026-04-14 15:17 43.51316 13.20284 2925 ft 159 kts 98°
2026-04-14 15:17 43.51360 13.21731 2662 ft 148 kts 68°
2026-04-14 15:17 43.51868 13.22868 2436 ft 135 kts 45°
2026-04-14 15:18 43.52500 13.23763 2291 ft 126 kts 41°
2026-04-14 15:18 43.53123 13.24605 2199 ft 126 kts 42°
2026-04-14 15:18 43.53753 13.25456 2033 ft 128 kts 41°
2026-04-14 15:18 43.54389 13.26319 1851 ft 128 kts 42°
2026-04-14 15:19 43.55022 13.27181 1669 ft 127 kts 40°
2026-04-14 15:19 43.55649 13.28036 1495 ft 127 kts 43°
2026-04-14 15:19 43.56267 13.28908 1355 ft 127 kts 44°
2026-04-14 15:19 43.56886 13.29785 1110 ft 128 kts 42°
2026-04-14 15:20 43.57526 13.30637 944 ft 128 kts 40°
2026-04-14 15:20 43.58172 13.31492 759 ft 129 kts 39°
2026-04-14 15:20 43.58803 13.32368 597 ft 130 kts 40°
2026-04-14 15:20 43.59435 13.33231 457 ft 130 kts 41°
2026-04-14 15:21 43.60076 13.34103 298 ft 129 kts 41°
2026-04-14 15:21 43.60709 13.34969 132 ft 127 kts 43°
2026-04-14 15:21 43.61316 13.35795 57 ft 112 kts 43°
2026-04-14 15:21 43.61741 13.36377 55 ft 60 kts 44°
2026-04-14 15:22 43.61912 13.36624 49 ft 13 kts 55°
2026-04-14 15:22 43.61948 13.36674 47 ft 1 kts 346°
2026-04-14 15:22 43.61951 13.36668 48 ft 1 kts 309°
2026-04-14 15:22 43.61949 13.36648 48 ft 3 kts 236°
2026-04-14 15:23 43.61903 13.36595 49 ft 10 kts 220°
2026-04-14 15:23 43.61862 13.36540 50 ft 14 kts 225°
2026-04-14 15:23 43.61782 13.36431 54 ft 18 kts 225°
2026-04-14 15:23 43.61636 13.36232 51 ft 26 kts 225°
2026-04-14 15:24 43.61545 13.36106 56 ft 28 kts 225°
2026-04-14 15:24 43.61402 13.35909 56 ft 29 kts 224°
2026-04-14 15:24 43.61261 13.35718 55 ft 26 kts 225°
2026-04-14 15:24 43.61152 13.35590 55 ft 20 kts 210°
2026-04-14 15:25 43.61031 13.35558 67 ft 14 kts 178°
2026-04-14 15:25 43.60943 13.35559 69 ft 12 kts 180°
2026-04-14 15:25 43.60875 13.35511 67 ft 11 kts 223°
2026-04-14 15:25 43.60826 13.35441 65 ft 7 kts 226°
2026-04-14 15:26 43.60794 13.35406 67 ft 4 kts 193°
2026-04-14 15:26 43.60778 13.35416 65 ft 2 kts 139°
2026-04-14 15:26 43.60763 13.35440 68 ft 3 kts 135°
2026-04-14 15:26 43.60757 13.35449 68 ft 0 kts 134°